STARLINK-1952 (47349 NORAD) Tracking and Keplerian Element Data

This shows tracking and keplerian element data for the satellite.

Feedback or suggestion? Click here.




ElementValue
Catalog47349
NameSTARLINK-1952
Epoch Orbit1349
Epoch Day101.91668981
Epoch Year2021
RAAN189.6857
Inclination53.0568
Eccentricity0.0001159
Argument of Perigee72.47
Mean Anonmoly240.6087
Mean Motion15.0642056
Decay Rate-0.00036659
L11 47349U 21005A 21101.91668981 -.00036659 00000-0 -24535-2 0 9990
L22 47349 53.0568 189.6857 0001159 72.4700 240.6087 15.06420560 13499

Live tracking and technical data element details for STARLINK-1952 (NORAD 47349). STARLINK-1952 can be tracked NOW for your location showing map with azimuth and elevation plus other details from your city location.

Track the satellite on the map from your city or location and see movement details for azimuth, elevation, latitude, longitude, range, height, and movement on the map or in text.







IsCatalogInMostPopularTable: catalog: 47349, numindb: 15
Update: records affected: 1



GetName: 47349 STARLINK-1952

Hit Count: updated at: Tue, 13 Apr 2021 03:37:25 GMT